When you browse on this site, cookies collect data to enhance your experience and personalize the content and advertising you see.
Visit our Privacy Policy to learn more. By continuing to use the site, you agree to this use of cookies and data.
  • In France
  • List of Countries
  • For 7 days
  • Water Temperature
  • Weather Map
  • Weather Widgets
  • user-avatar
    Login

    Hourly Weather Chitole

    Today, 26 May, Tuesday

    Time Temperature Precipitation Wind Pressure Humidity
    00:00 +19°C° 0 mm 1 mps 671 mmHg 54%
    01:00 +18°C° 0 mm 1 mps 671 mmHg 56%
    02:00 +18°C° 0 mm 1 mps 671 mmHg 58%
    03:00 +16°C° 0 mm 1 mps 670 mmHg 61%
    04:00 +15°C° 0 mm 0 mps 670 mmHg 63%
    05:00 +16°C° 0 mm 0 mps 671 mmHg 60%
    06:00 +17°C° 0 mm 0 mps 672 mmHg 57%
    07:00 +18°C° 0 mm 0 mps 673 mmHg 54%
    08:00 +21°C° 0 mm 0 mps 673 mmHg 46%
    09:00 +27°C° 0 mm 1 mps 674 mmHg 39%
    10:00 +30°C° 0 mm 1 mps 675 mmHg 31%
    11:00 +31°C° 0 mm 1 mps 674 mmHg 28%
    12:00 +32°C° 0 mm 1 mps 673 mmHg 25%
    13:00 +34°C° 0 mm 2 mps 673 mmHg 22%
    14:00 +32°C° 0 mm 1 mps 672 mmHg 23%
    15:00 +32°C° 0 mm 1 mps 672 mmHg 23%
    16:00 +31°C° 0 mm 1 mps 672 mmHg 24%
    17:00 +29°C° 0 mm 1 mps 672 mmHg 28%
    18:00 +26°C° 0 mm 1 mps 672 mmHg 33%
    19:00 +23°C° 0 mm 1 mps 672 mmHg 38%
    20:00 +23°C° 0 mm 1 mps 672 mmHg 39%
    21:00 +22°C° 0 mm 1 mps 672 mmHg 40%
    22:00 +22°C° 0 mm 1 mps 672 mmHg 41%
    23:00 +21°C° 0 mm 1 mps 672 mmHg 43%

    Tomorrow, 27 May, Wednesday

    Time Temperature Precipitation Wind Pressure Humidity
    00:00 +20°C° 0 mm 1 mps 671 mmHg 45%
    01:00 +20°C° 0 mm 1 mps 671 mmHg 46%
    02:00 +19°C° 0 mm 1 mps 671 mmHg 48%
    03:00 +19°C° 0 mm 1 mps 671 mmHg 49%
    04:00 +18°C° 0 mm 1 mps 671 mmHg 51%
    05:00 +19°C° 0 mm 1 mps 672 mmHg 50%
    06:00 +19°C° 0 mm 1 mps 672 mmHg 49%
    07:00 +19°C° 0 mm 2 mps 673 mmHg 48%
    08:00 +23°C° 0 mm 2 mps 674 mmHg 41%
    09:00 +26°C° 0 mm 2 mps 674 mmHg 34%
    10:00 +29°C° 0 mm 2 mps 675 mmHg 28%
    11:00 +30°C° 0 mm 2 mps 674 mmHg 25%
    12:00 +32°C° 0 mm 1 mps 674 mmHg 23%
    13:00 +33°C° 0 mm 1 mps 674 mmHg 21%
    14:00 +33°C° 0 mm 1 mps 673 mmHg 22%
    15:00 +32°C° 0 mm 1 mps 673 mmHg 23%
    16:00 +29°C° 0 mm 0 mps 673 mmHg 23%
    17:00 +27°C° 0 mm 0 mps 673 mmHg 28%
    18:00 +24°C° 0 mm 0 mps 672 mmHg 32%
    19:00 +21°C° 0 mm 0 mps 672 mmHg 37%
    20:00 +22°C° 0 mm 1 mps 673 mmHg 37%
    21:00 +22°C° 0 mm 1 mps 673 mmHg 38%
    22:00 +21°C° 0 mm 1 mps 673 mmHg 39%
    23:00 +20°C° 0 mm 2 mps 673 mmHg 40%

    Day after tomorrow, 28 May, Thursday

    Time Temperature Precipitation Wind Pressure Humidity
    00:00 +19°C° 0 mm 2 mps 673 mmHg 42%
    01:00 +18°C° 0 mm 2 mps 672 mmHg 43%
    02:00 +17°C° 0 mm 2 mps 672 mmHg 45%
    03:00 +16°C° 0 mm 2 mps 672 mmHg 46%
    04:00 +15°C° 0 mm 2 mps 672 mmHg 48%
    05:00 +16°C° 0 mm 2 mps 673 mmHg 46%
    06:00 +16°C° 0 mm 3 mps 673 mmHg 45%
    07:00 +17°C° 0 mm 3 mps 674 mmHg 44%
    08:00 +20°C° 0 mm 3 mps 675 mmHg 37%
    09:00 +25°C° 0 mm 4 mps 675 mmHg 31%
    10:00 +28°C° 0 mm 4 mps 676 mmHg 25%
    11:00 +30°C° 0 mm 4 mps 675 mmHg 23%
    12:00 +31°C° 0 mm 3 mps 675 mmHg 21%
    13:00 +33°C° 0 mm 3 mps 674 mmHg 19%
    14:00 +32°C° 0 mm 2 mps 674 mmHg 20%
    15:00 +31°C° 0 mm 2 mps 673 mmHg 21%
    16:00 +31°C° 0 mm 1 mps 673 mmHg 22%
    17:00 +28°C° 0 mm 1 mps 673 mmHg 25%
    18:00 +25°C° 0 mm 2 mps 673 mmHg 29%
    19:00 +21°C° 0 mm 2 mps 672 mmHg 32%
    20:00 +21°C° 0 mm 2 mps 672 mmHg 33%
    21:00 +21°C° 0 mm 1 mps 673 mmHg 35%
    22:00 +20°C° 0 mm 1 mps 673 mmHg 36%
    23:00 +18°C° 0 mm 2 mps 672 mmHg 37%

    29 May, Friday

    Time Temperature Precipitation Wind Pressure Humidity
    00:00 +18°C° 0 mm 2 mps 672 mmHg 38%
    01:00 +17°C° 0 mm 2 mps 672 mmHg 39%
    02:00 +17°C° 0 mm 2 mps 672 mmHg 40%
    03:00 +16°C° 0 mm 2 mps 672 mmHg 41%
    04:00 +15°C° 0 mm 2 mps 672 mmHg 42%
    05:00 +16°C° 0 mm 2 mps 673 mmHg 41%
    06:00 +17°C° 0 mm 3 mps 673 mmHg 39%
    07:00 +17°C° 0 mm 3 mps 674 mmHg 38%
    08:00 +21°C° 0 mm 3 mps 674 mmHg 33%
    09:00 +25°C° 0 mm 3 mps 675 mmHg 27%
    10:00 +29°C° 0 mm 4 mps 676 mmHg 21%
    11:00 +30°C° 0 mm 3 mps 675 mmHg 20%
    12:00 +31°C° 0 mm 3 mps 674 mmHg 18%
    13:00 +32°C° 0 mm 2 mps 674 mmHg 17%
    14:00 +32°C° 0 mm 2 mps 673 mmHg 18%
    15:00 +31°C° 0 mm 2 mps 673 mmHg 19%
    16:00 +31°C° 0 mm 1 mps 672 mmHg 19%
    17:00 +28°C° 0 mm 1 mps 672 mmHg 23%
    18:00 +25°C° 0 mm 1 mps 672 mmHg 27%
    19:00 +22°C° 0 mm 1 mps 672 mmHg 31%
    20:00 +22°C° 0 mm 1 mps 672 mmHg 32%
    21:00 +20°C° 0 mm 2 mps 672 mmHg 33%
    22:00 +19°C° 0 mm 2 mps 672 mmHg 35%
    23:00 +19°C° 0 mm 2 mps 672 mmHg 35%

    30 May, Saturday

    Time Temperature Precipitation Wind Pressure Humidity
    00:00 +18°C° 0 mm 2 mps 672 mmHg 36%
    01:00 +18°C° 0 mm 3 mps 671 mmHg 36%
    02:00 +17°C° 0 mm 2 mps 671 mmHg 38%
    03:00 +16°C° 0 mm 2 mps 671 mmHg 39%
    04:00 +15°C° 0 mm 2 mps 671 mmHg 40%
    05:00 +16°C° 0 mm 2 mps 672 mmHg 41%
    06:00 +16°C° 0 mm 2 mps 673 mmHg 41%
    07:00 +17°C° 0 mm 2 mps 673 mmHg 42%
    08:00 +20°C° 0 mm 3 mps 674 mmHg 38%
    09:00 +25°C° 0 mm 3 mps 675 mmHg 33%
    10:00 +29°C° 0 mm 3 mps 675 mmHg 29%
    11:00 +30°C° 0 mm 3 mps 675 mmHg 27%
    12:00 +31°C° 0 mm 3 mps 674 mmHg 25%
    13:00 +33°C° 0 mm 3 mps 674 mmHg 22%
    14:00 +32°C° 0 mm 2 mps 673 mmHg 24%
    15:00 +31°C° 0 mm 2 mps 673 mmHg 25%
    16:00 +31°C° 0 mm 2 mps 673 mmHg 26%
    17:00 +28°C° 0 mm 2 mps 673 mmHg 30%
    18:00 +26°C° 0 mm 2 mps 673 mmHg 34%
    19:00 +23°C° 0 mm 1 mps 673 mmHg 39%
    20:00 +22°C° 0 mm 1 mps 673 mmHg 40%
    21:00 +21°C° 0 mm 2 mps 673 mmHg 41%
    22:00 +20°C° 0 mm 2 mps 673 mmHg 43%
    23:00 +20°C° 0 mm 2 mps 673 mmHg 44%

    31 May, Sunday

    Time Temperature Precipitation Wind Pressure Humidity
    00:00 +19°C° 0 mm 2 mps 673 mmHg 45%
    01:00 +18°C° 0 mm 2 mps 672 mmHg 46%
    02:00 +18°C° 0 mm 2 mps 672 mmHg 49%
    03:00 +17°C° 0 mm 2 mps 672 mmHg 51%
    04:00 +16°C° 0 mm 2 mps 672 mmHg 53%
    05:00 +17°C° 0 mm 2 mps 673 mmHg 53%
    06:00 +17°C° 0 mm 2 mps 673 mmHg 52%
    07:00 +18°C° 0 mm 2 mps 674 mmHg 51%
    08:00 +21°C° 0 mm 3 mps 674 mmHg 45%
    09:00 +26°C° 0 mm 4 mps 675 mmHg 39%
    10:00 +29°C° 0 mm 5 mps 676 mmHg 33%
    11:00 +30°C° 0 mm 4 mps 675 mmHg 30%
    12:00 +33°C° 0 mm 4 mps 675 mmHg 26%
    13:00 +34°C° 0 mm 4 mps 675 mmHg 23%
    14:00 +33°C° 0 mm 4 mps 674 mmHg 24%
    15:00 +33°C° 0 mm 3 mps 674 mmHg 25%
    16:00 +31°C° 0 mm 3 mps 674 mmHg 26%
    17:00 +29°C° 0 mm 3 mps 674 mmHg 30%
    18:00 +27°C° 0 mm 3 mps 674 mmHg 34%
    19:00 +25°C° 0 mm 2 mps 674 mmHg 37%
    20:00 +24°C° 0 mm 2 mps 674 mmHg 39%
    21:00 +24°C° 0 mm 2 mps 674 mmHg 41%
    22:00 +23°C° 0 mm 2 mps 674 mmHg 43%
    23:00 +21°C° 0 mm 2 mps 674 mmHg 45%
    Show more